Terug naar catalogus

CHUANG XIN 19

CX-19

ActiefWetenschapPO
NORAD 58505·PAYLOAD·🇨🇳 China

Gelanceerd Dec 5, 2023 vanaf South China Sea Launch Area

Loading…

Volgende Passages (komende 24 uur)

TLE

VersSource: Space-Track

Epoch: Sep 14, 2026, 23:02 UTC

1 58505U 23190A   26257.95990418  .00000041  00000-0  48339-4 0  9991
2 58505  86.5009 301.5242 0001832 109.2344 250.8997 13.39558179136716

Volg CHUANG XIN 19 in realtime met AllMySat

Download on the App Store